Philadelphia, PA

5:42 AM EDT on May 27, 2017 (GMT -0400)
Philadelphia International

Weather History for KPHL - April, 2014

Change the Weather History Date:

Thursday, April 17, 2014

  Actual Average Record
Temperature  
Mean Temperature 45 °F 55 °F  
Max Temperature 53 °F 65 °F 95 °F (2002)
Min Temperature 37 °F 45 °F 27 °F (1962)
Degree Days  
Heating Degree Days 20 11  
Month to date heating degree days 197 230  
Since 1 July heating degree days 4654 4377  
Cooling Degree Days 0 0  
Month to date cooling degree days 9 0  
Year to date cooling degree days 9 1  
Moisture  
Dew Point 25 °F    
Average Humidity 52    
Maximum Humidity 70    
Minimum Humidity 34    
Precipitation  
Precipitation 0.00 in 0.12 in 1.16 in (1910)
Month to date precipitation 1.38 2.10  
Year to date precipitation 14.28 11.57  
Snow  
Snow 0.00 in 0.00 in T in (1949)
Month to date snowfall T 0.4  
Since 1 July snowfall 68.0 22.3  
Snow Depth 0.00 in    
Sea Level Pressure  
Sea Level Pressure 30.64 in    
Wind  
Wind Speed 10 mph (ENE)    
Max Wind Speed 17 mph    
Max Gust Speed 30 mph    
Visibility 10 miles    
Events      
T = Trace of Precipitation, MM = Missing Value Source: NWS Daily Summary

Daily Weather History Graph

Daily Weather History Graph

Search for Another Location

Airport or City:

Trip Planner

Search our weather history database for the weather conditions in past years. The results will help you decide how hot, cold, wet, or windy it might be!

Date:

Astronomy

Apr. 17, 2014 Rise Set
Actual Time 6:20 AM EDT 7:41 PM EDT
Civil Twilight 5:52 AM EDT 8:09 PM EDT
Nautical Twilight 5:18 AM EDT 8:43 PM EDT
Astronomical Twilight 4:43 AM EDT 9:18 PM EDT
Moon 10:24 PM EDT (4/17) 7:50 AM EDT (4/17)
Length of Visible Light 14h 17m
Length of Day
13h 20m
Waning Gibbous, 94% of the Moon is Illuminated
Apr 17
Waning Gibbous
Apr 22
Last Quarter
Apr 29
New
May 6
First Quarter
May 14
Full

Hourly Weather History & Observations

Time (EDT) Temp. Windchill Dew Point Humidity Pressure Visibility Wind Dir Wind Speed Gust Speed Precip Events Conditions
12:54 AM 41.0 °F 34.3 °F 15.1 °F 35% 30.58 in 10.0 mi NE 11.5 mph - N/A   Clear
1:54 AM 39.9 °F 33.9 °F 16.0 °F 38% 30.59 in 10.0 mi NE 9.2 mph - N/A   Partly Cloudy
2:54 AM 37.9 °F 32.7 °F 21.0 °F 51% 30.59 in 10.0 mi NE 6.9 mph - N/A   Partly Cloudy
3:54 AM 37.9 °F 30.9 °F 21.0 °F 51% 30.59 in 10.0 mi NE 10.4 mph - N/A   Clear
4:54 AM 37.0 °F 30.4 °F 17.1 °F 44% 30.61 in 10.0 mi NE 9.2 mph - N/A   Clear
5:54 AM 37.0 °F 31.0 °F 19.0 °F 48% 30.62 in 10.0 mi ENE 8.1 mph - N/A   Partly Cloudy
6:54 AM 37.9 °F 31.5 °F 21.9 °F 53% 30.65 in 10.0 mi ENE 9.2 mph - N/A   Partly Cloudy
7:54 AM 41.0 °F 35.8 °F 25.0 °F 53% 30.67 in 10.0 mi ENE 8.1 mph - N/A   Partly Cloudy
8:54 AM 44.1 °F 38.6 °F 28.0 °F 53% 30.69 in 10.0 mi East 10.4 mph - N/A   Partly Cloudy
9:54 AM 46.0 °F 41.4 °F 28.9 °F 51% 30.71 in 10.0 mi East 9.2 mph - N/A   Scattered Clouds
10:54 AM 48.0 °F - 28.0 °F 46% 30.71 in 10.0 mi East 9.2 mph - N/A   Scattered Clouds
11:54 AM 51.1 °F - 26.1 °F 38% 30.70 in 10.0 mi ESE 11.5 mph 19.6 mph N/A   Scattered Clouds
12:54 PM 52.0 °F - 26.1 °F 37% 30.68 in 10.0 mi ESE 9.2 mph 17.3 mph N/A   Scattered Clouds
1:54 PM 53.1 °F - 28.0 °F 38% 30.66 in 10.0 mi East 12.7 mph - N/A   Scattered Clouds
2:54 PM 53.1 °F - 27.0 °F 37% 30.66 in 10.0 mi East 11.5 mph 21.9 mph N/A   Scattered Clouds
3:54 PM 52.0 °F - 28.9 °F 41% 30.64 in 10.0 mi East 12.7 mph - N/A   Scattered Clouds
4:54 PM 51.1 °F - 28.0 °F 41% 30.63 in 10.0 mi ENE 12.7 mph - N/A   Scattered Clouds
5:54 PM 48.9 °F - 28.0 °F 44% 30.63 in 10.0 mi East 12.7 mph - N/A   Scattered Clouds
6:54 PM 46.9 °F - 26.1 °F 44% 30.63 in 10.0 mi East 15.0 mph - N/A   Mostly Cloudy
7:54 PM 43.0 °F 36.8 °F 26.1 °F 51% 30.64 in 10.0 mi East 11.5 mph - N/A   Scattered Clouds
8:54 PM 42.1 °F 35.7 °F 27.0 °F 55% 30.63 in 10.0 mi East 11.5 mph - N/A   Scattered Clouds
9:54 PM 39.9 °F 33.9 °F 27.0 °F 60% 30.63 in 10.0 mi East 9.2 mph - N/A   Partly Cloudy
10:54 PM 37.9 °F 32.1 °F 28.0 °F 68% 30.61 in 10.0 mi ENE 8.1 mph - N/A   Partly Cloudy
11:23 PM 37.9 °F 32.7 °F 28.0 °F 68% 30.61 in 10.0 mi NE 6.9 mph - N/A   Mostly Cloudy
11:54 PM 39.0 °F 34.8 °F 28.9 °F 67% 30.61 in 10.0 mi ENE 5.8 mph - N/A   Overcast